Home   Weather   Albany   Past weeks

Flag for Australia Past Weather in Albany, Western Australia, Australia — Yesterday and Last 2 Weeks

Now
50 °F

Passing clouds.


Feels Like: 48 °F
Forecast: 52 / 71 °F
Wind: 7 mph from Northwest

Location: Albany Airport

Current Time: Dec 5, 2016 at 4:18:37 am

Latest Report: Dec 5, 2016 at 3:00 am


Visibility: N/A

Pressure: 29.94 "Hg

Humidity: 85%

Dew Point: 46 °F

Location of AlbanyLocation

Past Weather in Albany — Graph

°F

Albany Temperature Yesterday

Maximum temperature yesterday: 65 °F (at 2:00 pm)
Minimum temperature yesterday: 48 °F (at 9:00 pm)
Average temperature yesterday: 59 °F

High & Low Weather Summary for the Past Weeks

 TemperatureHumidityPressure
High94 °F (Nov 26, 12:00 pm)100% (Nov 21, 2:00 am)30.25 "Hg (Nov 21, 2:00 am)
Low40 °F (Nov 21, 5:00 am)15% (Nov 26, 12:00 pm)29.61 "Hg (Dec 3, 2:00 pm)
Average61 °F68%30.03 "Hg
* Reported Nov 20 3:00 am — Dec 5 3:00 am, Albany, Weather by CustomWeather, © 2016

Note: Actual official high and low records may vary slightly from our data, if they occured in-between our weather recording intervals... More about our weather records

Advertising

Albany Weather History for the Previous 24 Hours

Scroll right to see more
 ConditionsComfort  
Time TempWeatherWind HumidityBarometerVisibility
3:00 am
Mon, Dec 5
50 °FPassing clouds.7 mph85%29.94 "HgN/A
2:00 am53 °FCool.6 mph76%29.94 "HgN/A
12:00 am53 °FOvercast.5 mph79%29.96 "HgN/A
11:00 pm
Sun, Dec 4
52 °FCool.5 mph83%29.97 "HgN/A
9:00 pm48 °FCool.5 mph86%29.98 "HgN/A
8:00 pm53 °FCool.6 mph77%29.96 "HgN/A
6:00 pm60 °FScattered clouds.13 mph57%29.96 "HgN/A
5:00 pm62 °FRefreshingly cool.14 mph55%29.94 "HgN/A
3:00 pm65 °FOvercast.15 mph45%29.93 "HgN/A
2:00 pm65 °FMild.15 mph46%29.93 "HgN/A
12:00 pm65 °FPartly sunny.15 mph37%29.95 "HgN/A
11:00 am64 °FMild.15 mph45%29.96 "HgN/A
9:00 am63 °FOvercast.13 mph43%29.94 "HgN/A
8:00 am60 °FRefreshingly cool.13 mph50%29.93 "HgN/A
6:00 am56 °FOvercast.8 mph70%29.90 "HgN/A
5:00 am57 °FRefreshingly cool.8 mph57%29.87 "HgN/A
Weather by CustomWeather, © 2016

See weather overviewHow to use our weather pages